Location: Malvern Link
(52.1333°N, 2.3000°W)
Time: 13:24:41
(UTC+00:00)

CUTE 1.7 + AOD 2 - Visible Passes

Search period start: 26 June 2022 00:00
Search period end: 06 July 2022 00:00
Orbit: 591 x 607 km, 97.7° (Epoch: 25 June)

Date Brightness Start Highest point End Pass type
(mag) Time Alt. Az. Time Alt. Az. Time Alt. Az.
26 Jun ? 02:50:13 10° NE 02:52:22 14° E 02:54:30 10° ESE visible
27 Jun ? 03:00:31 10° NE 03:03:19 17° E 03:06:05 10° SE visible
04 Jul ? 02:41:43 10° ENE 02:42:59 11° E 02:44:14 10° ESE visible
05 Jul ? 02:51:39 10° NE 02:53:55 14° E 02:56:11 10° ESE visible
